Track STARLINK-1554 now! 10-day predictions STARLINK-1554 is classified as:
1 46055U 20055AE 21021.31066336 .00000317 00000-0 40198-4 0 9993 2 46055 53.0558 246.5294 0002318 83.6038 276.5215 15.06385204 26675